www.pogodaiklimat.ru

Погода и климат >> Архив погоды >> Ирак >> Ubaydah Bin Al Jarrah


ПОГОДА в Ubaydah Bin Al Jarrah

  • Прогноз погоды в Ubaydah Bin Al Jarrah
  • Монитор погоды в Ubaydah Bin Al Jarrah
  • Климат города

АРХИВ ПОГОДЫ в Ubaydah Bin Al Jarrah

Время (UTC), дата Ветер
(напр.,м/с)
 
Видим.   Явления Облачность Т
(С)
Тd
(С)
f
(%)
Тe
(С)
Тes
(С)
Комфортность P
(гПа)
Po
(гПа)
Тmin
(С)
Tmax
(С)
R
(мм)
R24
(мм)
S
(см)
00 13.09 СЗ 2 10 км ясно +29.4 -0.8 14 +27 +27 жарко 1006.5 1007.0
03 13.09 СЗ 3 10 км ясно +27.8 +1.2 18 +26 +26 жарко 1006.5 1007.0
06 13.09 СЗ 6 10 км ясно +37.6 -1.2 9 +34 +37 очень
жарко
1006.9 1007.0 +27.5
12 13.09 С 13 6000 м пыльный позёмок ясно +46.0 -2.6 5 +42 +42 опасность
перегрева
1004.1 1004.0
15 13.09 СЗ 9 6000 м пыльный позёмок ясно +43.0 +1.0 8 +39 +39 очень
жарко
1003.3 1003.0
18 13.09 СЗ 6 8000 м пыль ясно +37.8 +3.0 12 +35 +35 очень
жарко
1004.2 1004.0 +46.6
21 13.09 СЗ 5 10 км ясно +33.2 +2.0 14 +30 +30 жарко 1002.8 1003.0
06 14.09 С 2 10 км ясно +34.2 +4.4 16 +32 +40 жарко 1003.4 1003.0 +25.4
09 14.09 СЗ 6 10 км ясно +44.0 +5.6 10 +41 +48 опасность
перегрева
1003.2 1003.0
12 14.09 СЗ 8 6000 м пыльный позёмок ясно +45.2 +4.8 9 +42 +44 опасность
перегрева
1002.2 1002.0
15 14.09 З 4 10 км ясно +40.6 +11.8 18 +40 +40 очень
жарко
1002.2 1002.0
18 14.09 СЗ 2 10 км ясно +34.8 +11.1 24 +34 +34 очень
жарко
1003.5 1004.0 +46.0
21 14.09 СЗ 2 10 км ясно +31.0 +9.9 27 +31 +31 жарко 1003.8 1004.0
00 15.09 СЗ 4 10 км ясно +29.0 +7.0 25 +28 +28 жарко 1003.4 1003.0
03 15.09 СЗ 6 4000 м пыль ясно +29.0 +10.8 32 +29 +29 жарко 1004.3 1004.0
06 15.09 СЗ 8 3000 м пыльный позёмок ясно +33.8 +13.0 28 +34 +36 очень
жарко
1005.3 1005.0 +28.0
09 15.09 СЗ 8 3000 м пыльный позёмок ясно +41.0 +13.5 20 +41 +44 опасность
перегрева
1005.2 1005.0
12 15.09 СЗ 8 3500 м пыльный позёмок ясно +42.8 +13.1 18 +43 +44 опасность
перегрева
1004.8 1005.0
03 16.09 СЗ 5 8000 м пыль ясно +29.4 +7.7 26 +29 +29 жарко 1006.9 1007.0
15 16.09 СЗ 4 10 км ясно +39.2 +8.4 16 +37 +37 очень
жарко
1005.3 1005.0
03 17.09 СЗ 2 10 км ясно +28.6 +6.9 25 +28 +28 жарко 1005.5 1006.0
09 17.09 СЗ 8 6000 м пыльный позёмок 3/0
[Ac trans]
+42.0 +4.6 10 +39 +41 очень
жарко
1005.2 1005.0
15 17.09 СЗ 2 6000 м пыль ясно +40.0 +10.6 17 +39 +39 очень
жарко
1004.3 1004.0
21 17.09 штиль 0 6000 м пыль ясно +30.0 +9.3 28 +30 +30 жарко 1005.0 1005.0
03 18.09 штиль 0 6000 м пыль ясно +26.0 +9.2 35 +26 +26 жарко 1004.9 1005.0
09 18.09 С 2 10 км ясно +43.0 +9.5 14 +41 +57 опасность
перегрева
1005.1 1005.0
15 18.09 штиль 0 10 км ясно +40.4 +12.5 19 +40 +40 очень
жарко
1004.2 1004.0
21 18.09 штиль 0 10 км ясно +32.4 +13.6 32 +34 +34 очень
жарко
1004.9 1005.0
00 19.09 штиль 0 10 км ясно +31.0 +11.0 29 +31 +31 жарко 1004.2 1004.0
03 19.09 СВ 2 10 км 6/6 1050 м
[Sc]
+32.6 +8.8 23 +31 +31 жарко 1005.4 1005.0
06 19.09 ЮВ 6 6000 м пыль 5/5 1050 м
[Sc]
+33.8 +13.4 29 +43 +44 опасность
перегрева
1007.0 1007.0 +29.8
09 19.09 ЮВ 3 5000 м пыль 6/6 900 м
[Cu Sc]
+39.6 +16.5 26 +42 +47 опасность
перегрева
1006.1 1006.0
12 19.09 Ю 3 5000 м пыль 5/5 1050 м
[Sc]
+44.0 +9.7 13 +42 +45 опасность
перегрева
1004.0 1004.0
15 19.09 штиль 0 6000 м пыль 4/4 1050 м
[Cu hum]
+40.8 +13.7 20 +41 +41 опасность
перегрева
1003.6 1004.0

 

Местоположение метеостанции Ubaydah Bin Al Jarrah (Ирак): широта 32.49 долгота 45.75 высота над уровнем моря 21 м.

В архиве по умолчанию представлена погода в Ubaydah Bin Al Jarrah за последнюю неделю. Архивные данные за месяц целиком и за предыдущие месяцы, начиная с января 2011 года, Вы можете получить, выбрав интересующий диапазон дат из раскрывающегося списка и нажав кнопку "Ввод!".


*Определитесь, кто Вы:
робот инопланетянин человек

Внимание! Время в таблицах - всемирное. Для получения местного времени необходимо прибавить поправку, которая в Ubaydah Bin Al Jarrah равна 3 ч.

Смотрите также архив погоды в соседних городах и на ближайших метеорологических станциях:

Погода в Kut-Al-Hai (Ирак) (45 км)
Погода в Badrah (Ирак) (70 км)
Погода в Azizyah (Ирак) (80 км)
Погода в Ali Al-Gharbi (Ирак) (91 км)
Погода в Rifai (Ирак) (92 км)
Погода в Diwaniya (Ирак) (92 км)
Погода в Hella (Ирак) (122 км)
Погода в Samawah (Ирак) (140 км)
Погода в Ilam (Иран) (142 км)
Погода в Najaf (Ирак) (146 км)

Пояснения к столбцам:

Ветер - указаны скорость ветра в м/с - средняя за 10 мин, порывы в срок и между сроками (в фигурных скобках) и направление, откуда дует ветер: С - северный, СВ - северо-восточный, В - восточный, ЮВ - юго-восточный, Ю - южный, ЮЗ - юго-западный, З - западный, СЗ - северо-западный.
Видимость - горизонтальная дальность видимости в метрах или километрах. При видимости от 1 до 10 км при отсутствии осадков обычно наблюдается дымка, при ухудшении видимости до 1 км и менее - туман. В сухую погоду видимость может ухудшаться дымом, пылью или мглою.
Явления - указаны атмосферные явления, наблюдавшиеся в срок или в последний час перед сроком; фигурными скобками обозначены явления, наблюдавшиеся между сроками (за 1-3 часа до срока); квадратными скобками обозначены град или гололедные отложения с указанием их диаметра в мм.
Облачность - указаны через наклонную черту общая и нижняя облачность в баллах и высота нижней границы облаков в метрах; квадратными скобками обозначены формы облаков: Ci - перистые, Cs - перисто-слоистые, Cc - перисто-кучевые, Ac - высококучевые, As - высокослоистые, Sc - слоисто-кучевые, Ns - слоисто-дождевые, Cu - кучевые, Cb - кучево-дождевые. Подробнее классификацию облаков см. в Атласе облаков (PDF).
T - Температура воздуха - температура, измеренная на высоте 2 м над землей.
Td - Температура точки росы - температура, при понижении до которой содержащийся в воздухе водяной пар достигнет насыщения.
f - Относительная влажность воздуха - влажноcть воздуха, измеренная на высоте 2 м над землей.
Te - Эффективная температура - температура, которую ощущает одетый по сезону человек в тени. Характеристика душности погоды. При расчете учитывается влияние влажности воздуха и скорости ветра на теплоощущения человека.
Tes - Эффективная температура на солнце - температура, которую ощущает человек, с поправкой на солнечный нагрев. Характеристика знойности погоды. Зависит от высоты солнца над горизонтом, облачности и скорости ветра. Ночью, в пасмурную погоду, а также при ветре 12 м/с и более поправка равна нулю.
P - Атмосферное давление - приведенное к уровню моря атмосферное давление.
Po - Атмосферное давление - измеренное на уровне метеостанции атмосферное давление.
Tmin - Минимальная температура - минимум температуры воздуха на высоте 2 м над землей.
Tmax - Максимальная температура - максимум температуры воздуха на высоте 2 м над землей.
R - Количество осадков - Количество выпавших осадков за период времени, мм. При наведении курсора мыши на число - период времени, за который выпало указанное количество осадков.
R24 - Количество осадков - Количество выпавших осадков за 24 часа, мм.
S - Снежный покров - Высота снежного покрова, см. При наведении курсора мыши на число - состояние снежного покрова и степень покрытия местности в баллах.